Weather Service Report


546 
ASUS46 KSTO 290604
RWRCA 

NORTHERN AND CENTRAL CA REGIONAL WEATHER ROUNDUP
NATIONAL WEATHER SERVICE SACRAMENTO CA 
1100 PM PDT SUN AUG 28 2016

NOTE: FAIR INDICATES FEW OR NO CLOUDS BELOW 12,000 FEET WITH NO
SIGNIFICANT WEATHER AND/OR OBSTRUCTIONS TO VISIBILITY.

CAZ001-003-290700-
NORTHWEST AREA
  
CITY           SKY/WX    TMP DP  RH WIND       PRES   REMARKS
CRESCENT CITY  CLOUDY    56  51  84 CALM      30.13R                  
UKIAH          CLEAR     64  53  67 N5        30.06R                  
$$

CAZ006-505>513-290700-
BAY AREA
  
CITY           SKY/WX    TMP DP  RH WIND       PRES   REMARKS
SANTA ROSA     CLEAR     55  52  89 SE3       30.07S                  
SAN RAFAEL     N/A       60  MM  MM MISG
NAPA           CLEAR     58  53  84 W14       30.06S                  
CONCORD        CLEAR     62  52  69 W7        30.06R                  
OAKLAND CITY   N/A       64  MM  MM MISG
OAKLAND        PTCLDY    61  55  81 W13       30.09R                  
SAN FRAN CITY  N/A       58  MM  79 MISG
SAN FRAN ARPT  PTCLDY    60  52  74 W14       30.09R                  
LIVERMORE      CLEAR     60  53  77 NW12      30.07R                  
HAYWARD        PTCLDY    61  52  72 NW10      30.08S                  
REDWOOD CITY   N/A       MM  MM  MM MISG
MOFFETT ARPT   CLEAR     62  54  74 N5        30.09R                  
SAN JOSE ARPT  PTCLDY    63  55  75 NW10      30.09R                  
$$
CAZ034-037-514>518-290700-
CENTRAL COAST
  
CITY           SKY/WX    TMP DP  RH WIND       PRES   REMARKS
WATSONVILLE    CLEAR     57  55  93 CALM      30.09R                  
SALINAS        CLEAR     60  53  77 W6        30.09R                  
MONTEREY       CLEAR     58  54  86 S3        30.10R                  
SAN LUIS OBISP CLEAR     60  54  80 NW7       30.06R                  
SANTA MARIA    CLEAR     57  55  93 W8        30.06S                  
$$
CAZ015-016-290700-
NORTHERN SACRAMENTO VALLEY
  
CITY           SKY/WX    TMP DP  RH WIND       PRES   REMARKS
REDDING        PTCLDY    74  44  34 N3        30.00R                  
RED BLUFF      CLEAR     74  53  48 CALM      30.00R                  
OROVILLE       CLEAR     73  47  39 E5        30.01R                  
$$
CAZ016>018-290700-
SOUTHERN SACRAMENTO VALLEY
  
CITY           SKY/WX    TMP DP  RH WIND       PRES   REMARKS
AUBURN         CLEAR     66  46  48 E3        30.07S                  
BEALE AFB      CLEAR     73  47  39 E8        29.98R                  
LINCOLN        FAIR      63  48  59 E3        30.00R                  
MARYSVILLE       N/A     69  51  52 SE5       29.99R                  
SAC INTL ARPT  CLEAR     65  52  62 S13       29.98S                  
MATHER AIRPORT NOT AVBL                                               
DOWNTOWN SAC   N/A       67  MM  MM MISG
SAC EXEC ARPT  CLEAR     64  52  64 S10       30.01R                  
VACAVILLE      CLEAR     70  49  47 SW7       30.00R                  
TRAVIS AFB     CLEAR     60  52  73 SW18      29.99S                  
$$
CAZ019>021-290700-
SAN JOAQUIN VALLEY
  
CITY           SKY/WX    TMP DP  RH WIND       PRES   REMARKS
STOCKTON       CLEAR     68  54  60 NW13      30.01R                  
MODESTO        CLEAR     72  55  55 NW8       30.00R                  
MERCED         CLEAR     70  57  63 NW5       29.99R                  
LEMOORE        CLEAR     74  52  46 NW8       30.01R                  
FRESNO         CLEAR     78  57  48 NW7       30.01R                  
HANFORD        CLEAR     77  56  48 NW8       30.01R                  
PORTERVILLE    CLEAR     74  57  55 CALM      30.02R                  
BAKERSFIELD    CLEAR     78  50  37 CALM      30.00R                  
$$
CAZ011-012-071-290700-
NORTHERN MOUNTAINS
  
CITY           SKY/WX    TMP DP  RH WIND       PRES   REMARKS
YREKA          PTCLDY    69  32  25 W3        30.10R                  
MOUNT SHASTA   PTCLDY    56  39  53 CALM      30.17R                  
ALTURAS        CLEAR     56  26  31 E5        30.20R                  
$$
CAZ011-012-071-290700-
SIERRA NEVADA MTNS
  
CITY           SKY/WX    TMP DP  RH WIND       PRES   REMARKS
BLUE CANYON    CLEAR     66  30  26 E5        30.30S                  
TRUCKEE        CLEAR     52  27  37 CALM      30.34S                  
TAHOE VLY ARPT CLEAR     52  32  46 S3        30.36R                  
MAMMOTH LAKES  FAIR      60  26  26 CALM      30.40R                  
$$
  

Return to Home page


Western Regional Climate Center, wrcc@dri.edu